Retour au catalogue

CZ-6A DEB

ActifPO
NORAD 61481·DEBRIS·🇨🇳 China

Lancé Aug 6, 2024 depuis Taiyuan Satellite Launch Center

Loading…

Prochains Passages (prochaines 24 heures)

TLE

FraisSource: Space-Track

Époque: Sep 14, 2026, 10:42 UTC

1 61481U 24140AAP 26257.44606888  .00001969  00000-0  82424-3 0  9995
2 61481  88.8794 254.3871 0136979 194.3578 165.3705 14.20778682104803

Suivez CZ-6A DEB en temps réel avec AllMySat

Download on the App Store